Погода в Тхотю

Вьетнам     9°20′16″N   103°29′08″E
темп.,
°C
ветер,
м/с
пор.,
м/с
влажн.,
%
обл.,
%
осадки,
мм/ч
давл.,
гПа
погр.,
м
6 марта, сб
сб601:00+27вюв56803 0.0 1013731
04:00+26в778012 0.0 1012831
07:00+27в787824 0.1 1013956
10:00+27в777538 0.0 1014932
13:00+27в567520 0.0 1012821
16:00+27вюв12670 0.0 1010512
19:00+28ю34720 0.0 1010579
22:00+27ю67780 0.0 1012616
7 марта, вс
вс701:00+27юв677618 0.0 1012669
04:00+27вюв667622 0.0 1010728
07:00+27в567639 0.0 1012905
10:00+27в677696 0.0 1014885
13:00+27в567888 0.1 1012881
16:00+27ююв227130 0.0 1009703
19:00+27ю777921 0.0 1010716
22:00+27ююв910811 0.0 1013822
8 марта, пн
пн801:00+27вюв78805 0.0 1013896
04:00+27вюв787654 0.1 10111060
07:00+27в897532 0.1 10131127
10:00+27вюв797580 0.1 10151081
13:00+27вюв567258 0.1 10121020
16:00+28ю337056 0.0 1010859
19:00+27ююв677655 0.0 1011720
22:00+28юв787565 0.0 1013944
9 марта, вт
вт901:00+27вюв677952 0.0 1012869
04:00+27вюв6779100 0.1 1011897
07:00+27вюв677659 0.2 10131024
10:00+27в677650 0.2 1015781
13:00+27в567225 0.3 1012848
16:00+28ююв23660 0.0 1010706
19:00+28ю55750 0.0 1011705
22:00+28юв89760 0.1 1013833
10 марта, ср
ср1001:00+27вюв78778 0.1 1012731
04:00+27вюв777862 0.0 1011940
07:00+27в677770 0.1 1013988
10:00+27в677778 0.0 1014988
13:00+27в557473 0.1 1012869
16:00+27ю33710 0.0 1010660
19:00+27ю78780 0.0 1011676
22:00+27ююв89814 0.3 1013752